Location: Mountain View
(37.3861°N, 122.0839°W)
Time: 10:40:04
(UTC-07:00)

Tiangong 2 - Visible Passes

Search period start: 21 June 2018 00:00
Search period end: 01 July 2018 00:00
Orbit: 291 x 297 km, 42.8° (Epoch: 21 June)

Date Brightness Start Highest point End Pass type
(mag) Time Alt. Az. Time Alt. Az. Time Alt. Az.
25 Jun 2.7 04:40:49 14° S 04:41:57 17° SE 04:43:47 10° E visible
26 Jun 1.4 04:46:12 20° SSW 04:47:34 37° SSE 04:49:58 10° E visible
27 Jun 0.4 04:51:26 18° WSW 04:53:11 85° SSE 04:55:45 10° ENE visible
28 Jun 3.8 03:26:15 10° E 03:26:15 10° E 03:26:16 10° E visible
28 Jun 1.2 04:56:34 12° W 04:58:48 48° NNW 05:01:17 10° ENE visible
29 Jun 3.1 03:31:15 18° E 03:31:15 18° E 03:32:06 10° ENE visible
29 Jun 2.1 05:02:02 10° W 05:04:23 31° NNW 05:06:43 10° NE visible
30 Jun 2.5 03:36:10 28° ENE 03:36:10 28° ENE 03:37:34 10° ENE visible
30 Jun 2.6 05:07:44 10° WNW 05:09:55 24° N 05:12:06 10° NE visible
